Volver al catálogo

YAOGAN-43 02E

ActivoMilitarVLEO
NORAD 60949·PAYLOAD·🇨🇳 China

Lanzado Sep 3, 2024 desde Xichang Satellite Launch Center

Loading…

Próximos Pases (próximas 24 horas)

TLE

ActualizadoSource: Space-Track

Época: Sep 14, 2026, 17:34 UTC

1 60949U 24156E   26257.73194943  .00010581  00000-0  43941-3 0  9997
2 60949  34.9985 355.0136 0005120  49.3188 310.7971 15.23047924113103

Sigue YAOGAN-43 02E en tiempo real con AllMySat

Download on the App Store